ICEYE-X8 (47510 NORAD) Tracking and Keplerian Element Data

This shows tracking and keplerian element data for the satellite.

Feedback or suggestion? Click here.




ElementValue
Catalog47510
NameICEYE-X8
Epoch Orbit22403
Epoch Day35.18416493
Epoch Year2025
RAAN96.2993
Inclination97.299
Eccentricity0.000598
Argument of Perigee112.5054
Mean Anonmoly247.683
Mean Motion15.49214736
Decay Rate0.0004006
L11 47510U 21006DB 25035.18416493 .00040060 00000+0 73338-3 0 9993
L22 47510 97.2990 96.2993 0005980 112.5054 247.6830 15.49214736224036



Live tracking and technical data element details for ICEYE-X8 (NORAD 47510). ICEYE-X8 can be tracked NOW for your location showing map with azimuth and elevation plus other details from your city location.







IsCatalogInMostPopularTable: catalog: 47510, numindb: 193
Update: records affected: 1



GetName: 47510 ICEYE-X8

Hit Count: updated at: Wed, 18 Jun 2025 05:25:35 GMT